EW7638 Weather Reports


time (UTC)temp
F
wind
direction
speed
knots
gust
knots
rain 1hr
in
rain 24hr
in
rain mn
in
humidity
%
barometer
mb
20260508064530 53 137 0.0 0.0 0.00 1.19 0.00 86 1013.5
20260508064029 53 137 0.0 0.0 0.00 1.19 0.00 86 1013.4
20260508063529 53 137 0.0 0.0 0.00 1.19 0.00 86 1013.5
20260508063034 53 137 0.0 0.0 0.00 1.19 0.00 86 1013.3
20260508063030 53 137 0.0 0.0 0.00 1.19 0.00 86 1013.4
20260508062638 53 137 0.0 0.0 0.00 1.19 0.00 86 1013.3
20260508061529 53 137 0.0 0.0 0.00 1.19 0.00 86 1013.3
20260508061031 53 137 0.0 0.0 0.00 1.19 0.00 86 1013.4
20260508060530 53 137 0.0 0.0 0.00 1.19 0.00 86 1013.4
20260508060034 53 137 0.0 0.0 0.00 1.19 0.00 86 1013.3
20260508060030 53 137 0.0 0.0 0.00 1.19 0.00 86 1013.3
20260508055024 53 137 0.0 0.0 0.00 1.19 0.00 86 1013.3
20260508054525 53 137 0.0 0.0 0.00 1.19 0.00 86 1013.2
20260508054026 53 137 0.0 0.0 0.00 1.19 0.00 86 1013.1
20260508053524 54 137 0.0 0.0 0.00 1.19 0.00 86 1013.3
20260508053026 54 137 0.0 0.0 0.00 1.19 0.00 86 1013.3
20260508052524 54 137 0.0 0.0 0.00 1.19 0.00 86 1013.2
20260508052019 54 137 0.0 0.0 0.00 1.19 0.00 86 1013.1
20260508051520 54 137 0.0 0.0 0.00 1.20 0.00 86 1013.1
20260508051516 54 137 0.0 0.0 0.00 1.19 0.00 86 1013.1
20260508051119 54 137 0.0 0.0 0.00 1.20 0.00 86 1013.1
20260508050014 54 137 0.0 0.0 0.00 1.22 0.00 86 1013.2
20260508045514 54 137 0.0 0.0 0.00 1.34 0.00 86 1013.1
20260508045016 54 137 0.0 0.0 0.00 1.37 0.00 86 1013.1
20260508044520 54 137 0.0 0.0 0.00 1.41 0.00 86 1013.2
20260508044015 54 137 0.0 0.0 0.00 1.44 0.00 86 1013.1
20260508043514 55 137 0.0 0.0 0.00 1.49 0.00 86 1013.0
20260508043014 55 137 0.0 0.0 0.00 1.55 0.00 86 1013.1
20260508042514 55 137 0.0 0.0 0.00 1.61 0.00 86 1013.2
20260508042012 55 137 0.0 0.0 0.00 1.63 0.00 86 1013.2
20260508041519 55 137 0.0 0.0 0.00 1.63 0.00 86 1013.1
20260508041512 55 137 0.0 0.0 0.00 1.63 0.00 86 1013.0
20260508040516 55 137 0.0 0.0 0.00 1.63 0.00 86 1013.0
20260508040512 55 137 0.0 0.0 0.00 1.63 0.00 86 1013.1
20260508035512 55 137 0.0 0.0 0.00 1.64 1.63 86 1013.2
20260508035012 55 137 0.0 0.0 0.00 1.64 1.63 86 1013.0
20260508034512 55 137 0.0 0.0 0.00 1.64 1.63 86 1012.9
20260508034017 55 137 0.0 0.0 0.00 1.64 1.63 86 1012.6
20260508033510 55 137 0.0 0.0 0.00 1.64 1.63 86 1012.6
20260508033010 55 137 0.0 0.0 0.00 1.65 1.63 86 1012.5
20260508032510 55 137 0.0 0.0 0.00 1.65 1.63 86 1012.4
20260508032010 55 137 0.0 0.0 0.00 1.65 1.63 86 1012.3
20260508031511 55 137 0.0 0.0 0.00 1.65 1.63 86 1012.5
20260508031011 55 137 0.0 0.0 0.00 1.65 1.63 86 1012.4
20260508030511 55 137 0.0 0.0 0.00 1.65 1.63 86 1012.3
20260508030010 55 137 0.0 0.0 0.00 1.65 1.63 86 1012.4
20260508025510 55 137 0.0 0.0 0.00 1.65 1.63 86 1012.2
20260508025011 55 137 0.0 0.0 0.00 1.65 1.63 86 1012.1
20260508024510 55 137 0.0 0.0 0.00 1.65 1.63 86 1012.1
20260508024009 55 137 0.0 0.0 0.00 1.65 1.63 86 1012.1
20260508023508 55 137 0.0 0.0 0.00 1.65 1.63 86 1012.1
20260508023008 55 137 0.0 0.0 0.00 1.65 1.63 86 1011.8
20260508022508 55 137 0.0 0.0 0.00 1.65 1.63 87 1011.9
20260508022012 55 137 0.0 0.0 0.00 1.65 1.63 86 1011.8
20260508022008 55 137 0.0 0.0 0.00 1.65 1.63 86 1011.9
20260508021010 55 137 0.0 0.0 0.00 1.65 1.63 86 1011.7
20260508020507 55 137 0.0 0.0 0.00 1.65 1.63 86 1011.4
20260508020006 55 137 0.0 0.0 0.00 1.65 1.63 86 1011.4
20260508015507 55 137 0.0 0.0 0.00 1.65 1.63 87 1011.6
20260508015006 55 137 0.0 0.0 0.00 1.65 1.63 87 1011.7
20260508014508 55 137 0.0 0.0 0.00 1.65 1.63 87 1011.5
20260508014006 55 137 0.0 0.0 0.00 1.65 1.63 87 1011.6
20260508013507 55 137 0.0 0.0 0.00 1.65 1.63 87 1011.4
20260508013006 55 137 0.0 0.0 0.01 1.65 1.63 87 1011.4
20260508012508 55 137 0.0 0.0 0.03 1.65 1.63 87 1011.2
20260508012008 55 120 0.0 0.0 0.07 1.65 1.63 87 1011.0
20260508011505 55 120 0.0 0.0 0.13 1.65 1.63 87 1010.9
20260508011004 55 120 0.0 0.0 0.14 1.65 1.63 87 1010.8
20260508010505 55 120 0.0 0.0 0.18 1.65 1.63 87 1010.6
20260508010004 55 120 0.0 0.0 0.20 1.65 1.63 87 1010.8
20260508005508 55 120 0.0 0.0 0.20 1.65 1.63 87 1010.8
20260508005504 55 120 0.0 0.0 0.20 1.65 1.63 87 1010.7
20260508005115 55 120 0.0 0.0 0.20 1.65 1.63 87 1010.9
20260508004613 55 120 0.0 0.0 0.20 1.65 1.63 87 1010.9
20260508003508 55 121 0.0 0.0 0.19 1.64 1.62 87 1010.4
20260508003504 55 120 0.0 0.0 0.20 1.65 1.63 87 1011.0
20260508002505 55 121 0.0 0.0 0.17 1.62 1.60 87 1010.6
20260508002006 55 121 0.0 0.0 0.07 1.52 1.51 87 1011.0
20260508002002 55 121 0.0 0.0 0.12 1.57 1.56 87 1011.0
20260508001001 55 121 0.0 0.0 0.06 1.51 1.49 87 1010.6
20260508000500 56 121 0.0 0.0 0.02 1.47 1.45 87 1010.3
20260508000001 56 121 0.0 0.0 0.00 1.45 1.43 87 1010.0
20260507235504 56 114 0.0 0.0 0.00 1.45 1.43 87 1009.4
20260507235500 56 121 0.0 0.0 0.00 1.45 1.43 87 1009.6
20260507234459 56 114 0.0 0.0 0.00 1.45 1.43 87 1009.5
20260507234002 56 114 0.0 0.0 0.00 1.45 1.43 87 1009.5
20260507233500 56 114 0.0 0.0 0.00 1.45 1.43 87 1009.6
20260507233004 56 119 0.0 0.0 0.00 1.45 1.43 87 1009.8
20260507233000 56 114 0.0 0.0 0.00 1.45 1.43 87 1009.7
20260507232602 56 109 0.0 0.0 0.00 1.45 1.43 87 1009.8
20260507231456 56 119 0.0 0.0 0.00 1.45 1.43 87 1009.8
20260507230956 56 119 0.0 0.0 0.00 1.45 1.43 87 1009.7
20260507230456 56 120 0.0 0.0 0.00 1.45 1.43 87 1009.5
20260507225956 56 120 0.0 0.0 0.00 1.45 1.43 87 1009.5
20260507225456 56 120 0.0 0.0 0.00 1.45 1.43 87 1009.5
20260507224955 56 254 0.0 1.7 0.00 1.45 1.43 87 1009.5
20260507224456 56 145 0.0 1.7 0.00 1.45 1.43 87 1009.4
20260507224452 57 123 0.0 0.0 0.00 1.45 1.43 87 1009.3
20260507223454 57 129 0.0 0.0 0.00 1.45 1.43 87 1009.2
20260507222952 57 129 0.0 0.0 0.00 1.45 1.43 87 1009.2
20260507222452 57 117 0.0 0.0 0.00 1.45 1.43 87 1009.1
20260507221955 56 120 0.0 0.0 0.00 1.45 1.43 87 1009.0
20260507221951 56 117 0.0 0.0 0.00 1.45 1.43 87 1009.0
20260507221602 56 96 0.0 0.0 0.00 1.45 1.43 87 1009.2
20260507220449 56 79 0.0 0.0 0.00 1.45 1.43 87 1009.0
20260507215952 56 259 0.0 3.5 0.00 1.45 1.43 87 1009.2
20260507215454 56 125 0.0 0.0 0.00 1.45 1.43 87 1009.6
20260507215450 56 210 0.0 3.5 0.00 1.45 1.43 87 1009.2
20260507215101 56 140 0.0 0.0 0.00 1.45 1.43 87 1009.3
20260507213948 56 240 0.0 0.9 0.00 1.45 1.43 87 1009.1
20260507213448 56 63 0.0 6.1 0.00 1.45 1.43 87 1009.0
20260507212950 57 145 0.0 0.0 0.00 1.45 1.43 87 1009.0
20260507212946 56 346 0.0 6.1 0.00 1.45 1.43 87 1009.0
20260507211944 57 341 0.0 0.0 0.01 1.45 1.43 87 1008.9
20260507211443 57 16 0.0 0.0 0.01 1.45 1.43 87 1008.8
20260507210944 57 281 0.0 0.0 0.01 1.45 1.43 87 1008.7
20260507210444 58 280 0.0 0.0 0.01 1.45 1.43 87 1008.8
20260507205940 58 242 0.0 3.5 0.02 1.45 1.43 87 1008.5
20260507205440 58 309 0.0 5.2 0.02 1.45 1.43 87 1008.5
20260507204944 59 315 0.0 0.0 0.02 1.45 1.43 87 1008.4
20260507204940 59 93 0.0 5.2 0.02 1.45 1.43 87 1008.4
20260507203938 59 315 0.0 0.0 0.02 1.45 1.43 87 1008.3
20260507203437 59 297 0.0 0.9 0.02 1.45 1.43 87 1008.4
20260507202942 58 70 0.0 1.7 0.02 1.45 1.43 87 1008.0
20260507202935 58 121 0.0 0.9 0.02 1.45 1.43 87 1008.1
20260507201935 58 30 0.0 3.5 0.01 1.44 1.42 87 1008.3
20260507201436 59 317 0.0 3.5 0.04 1.44 1.42 87 1008.3
20260507200941 59 134 0.0 0.0 0.04 1.44 1.42 87 1008.4
20260507200937 59 153 0.0 0.0 0.04 1.44 1.42 87 1008.3
20260507195935 59 314 0.0 0.0 0.03 1.43 1.41 87 1008.3
20260507195435 59 109 0.0 0.0 0.03 1.43 1.41 87 1008.3
20260507194936 59 236 0.0 1.7 0.03 1.43 1.41 87 1008.3
20260507194436 59 71 0.0 2.6 0.03 1.43 1.41 87 1008.1
20260507193939 60 224 0.0 0.0 0.04 1.43 1.41 87 1008.2
20260507193935 60 179 0.0 2.6 0.04 1.43 1.41 87 1008.3
20260507192938 60 221 0.0 0.0 0.04 1.44 1.41 87 1008.0
20260507192436 60 290 0.0 3.5 0.04 1.44 1.41 87 1008.0
20260507191935 60 188 0.0 3.5 0.04 1.45 1.41 87 1008.1
20260507191435 60 197 0.0 2.6 0.01 1.43 1.38 87 1008.0
20260507190937 61 302 0.0 2.6 0.01 1.44 1.38 86 1008.2
20260507190435 61 336 0.0 2.6 0.01 1.44 1.38 86 1008.2
20260507185937 62 89 0.0 3.5 0.01 1.44 1.38 86 1008.1
20260507185437 63 218 0.0 3.5 0.01 1.44 1.38 85 1007.7
20260507184934 64 266 0.0 1.7 0.01 1.44 1.38 85 1007.2
20260507184433 65 122 0.0 1.7 0.01 1.44 1.38 85 1007.3
20260507183932 66 340 0.0 0.9 0.00 1.43 1.37 84 1007.6
20260507183434 68 32 0.0 0.0 0.00 1.43 1.37 84 1007.7
20260507182933 69 301 0.0 0.9 0.00 1.43 1.37 84 1007.8
20260507182427 71 310 0.0 1.7 0.00 1.43 1.37 83 1007.8
20260507181925 72 335 0.0 1.7 0.00 1.43 1.37 82 1007.3
20260507181426 73 152 0.0 2.6 0.00 1.43 1.37 85 1006.8
20260507180923 73 42 0.0 2.6 0.00 1.43 1.37 84 1007.2
20260507180423 73 32 0.0 3.5 0.00 1.43 1.37 85 1007.1
20260507175922 72 112 0.0 3.5 0.00 1.43 1.37 85 1007.1
20260507175423 72 119 0.0 3.5 0.00 1.43 1.37 86 1007.3
20260507174925 71 141 0.0 1.7 0.00 1.43 1.37 86 1007.7
20260507174921 71 141 0.0 3.5 0.00 1.43 1.37 86 1007.5
20260507174529 71 219 0.0 1.7 0.00 1.43 1.37 86 1007.7
20260507174031 71 328 0.0 0.0 0.00 1.43 1.37 86 1007.7
20260507172921 71 224 0.0 0.0 0.00 1.43 1.37 86 1007.4
20260507172421 70 156 0.0 0.9 0.00 1.43 1.37 86 1007.4
20260507171923 70 146 0.0 0.0 0.00 1.43 1.37 85 1007.2
20260507171919 70 161 0.0 0.9 0.00 1.43 1.37 85 1007.3
20260507171530 70 196 0.0 0.0 0.00 1.43 1.37 85 1007.1
20260507170417 69 198 0.0 0.0 0.00 1.43 1.37 85 1007.1
20260507165919 69 113 0.0 0.0 0.01 1.43 1.37 85 1007.2
20260507165421 69 124 0.0 0.0 0.01 1.43 1.37 85 1007.4
20260507164923 69 127 0.0 0.0 0.01 1.43 1.37 85 1007.8
20260507164919 69 113 0.0 0.0 0.01 1.43 1.37 85 1007.4
20260507163922 69 143 0.0 0.0 0.01 1.43 1.37 84 1008.1
20260507163918 69 139 0.0 0.0 0.01 1.43 1.37 85 1007.8
20260507162919 69 98 0.0 0.0 0.01 1.43 1.37 84 1008.2
20260507162417 69 142 0.0 0.0 0.01 1.43 1.37 84 1008.3
20260507161921 69 156 0.0 0.0 0.01 1.43 1.37 84 1008.7
20260507161917 69 119 0.0 0.0 0.01 1.43 1.37 85 1008.5
20260507160917 69 258 0.0 0.0 0.02 1.43 1.37 84 1008.8
20260507160417 69 124 0.0 0.0 0.03 1.43 1.37 84 1008.8
20260507155921 68 120 0.0 0.0 0.04 1.42 1.36 84 1009.0
20260507155917 69 350 0.0 0.0 0.03 1.42 1.37 84 1009.1
20260507154920 68 347 0.0 0.9 0.09 1.42 1.36 83 1008.6
20260507154916 68 115 0.0 0.0 0.06 1.42 1.36 84 1008.7
20260507153915 68 116 0.0 0.9 0.12 1.42 1.36 84 1008.3
20260507153413 68 135 0.0 1.7 0.21 1.42 1.36 83 1008.1
20260507152913 68 147 0.0 1.7 0.28 1.42 1.36 83 1008.3
20260507152413 68 113 0.0 0.9 0.33 1.42 1.36 83 1008.6
20260507151915 68 89 0.0 0.9 0.42 1.42 1.36 83 1008.6
20260507151415 67 130 0.0 0.0 0.47 1.42 1.36 83 1008.2
20260507150915 67 54 0.0 1.7 0.50 1.41 1.35 83 1008.4
20260507150416 67 98 0.0 1.7 0.53 1.40 1.34 84 1008.6
20260507145915 67 121 0.0 1.7 0.57 1.39 1.33 84 1008.5
20260507145415 67 316 0.0 1.7 0.64 1.38 1.32 84 1008.7
20260507144913 67 104 0.0 8.7 0.69 1.36 1.30 84 1009.0
20260507144411 67 118 0.9 8.7 0.67 1.33 1.28 84 1009.0
20260507143911 67 93 0.9 7.0 0.64 1.30 1.24 84 1009.0
20260507143414 67 20 0.0 3.5 0.55 1.21 1.16 84 1009.2
20260507142915 67 94 0.0 0.0 0.43 1.09 1.04 84 1009.0
20260507142911 67 116 0.0 1.7 0.48 1.14 1.09 84 1009.0
20260507141912 67 169 0.0 0.0 0.34 1.00 0.95 84 1009.2
20260507141411 68 118 0.0 0.0 0.29 0.95 0.89 84 1009.2
20260507140911 68 198 0.0 0.9 0.25 0.91 0.85 84 1009.4
20260507140408 68 128 0.0 0.9 0.21 0.87 0.81 84 1009.3
20260507135909 68 292 0.0 1.7 0.16 0.82 0.77 84 1009.3
20260507135414 68 240 0.0 1.7 0.08 0.74 0.68 83 1009.3
20260507134914 68 125 0.0 0.0 0.00 0.66 0.60 83 1009.2
20260507134910 68 142 0.0 0.0 0.01 0.67 0.61 83 1009.3
20260507133909 68 120 0.0 0.0 0.00 0.66 0.60 83 1009.2
20260507133409 68 110 0.0 0.0 0.00 0.66 0.60 83 1009.2
20260507132910 68 117 0.0 0.0 0.00 0.66 0.60 83 1009.2
20260507132408 68 323 0.0 0.0 0.00 0.66 0.60 83 1009.2
20260507131907 68 122 0.0 0.9 0.00 0.66 0.60 83 1009.3
20260507131409 68 127 0.0 0.9 0.00 0.66 0.60 83 1009.3
20260507130904 68 165 0.0 0.0 0.00 0.66 0.60 83 1009.2
20260507130406 0 0.0 0.0 0.00 0.66 0.60 1009.1
20260507125901 0 0.0 0.0 0.00 0.66 0.60 1009.0
20260507125311 0 0.0 0.0 0.00 0.66 0.60 1009.1
20260507124712 0 0.0 0.0 0.00 0.66 0.60 1009.1
20260507124207 0 0.0 0.0 0.00 0.66 0.60 1009.1
20260507123614 0 0.0 0.0 0.00 0.66 0.60 1009.1
20260507123110 0 0.0 0.0 0.00 0.66 0.60 1009.2
20260507122604 0 0.0 0.0 0.00 0.66 0.60 1009.2
20260507122013 0 0.0 0.0 0.00 0.66 0.60 1009.3
20260507121518 0 0.0 0.0 0.00 0.66 0.60 1009.3
20260507121008 0 0.0 0.0 0.00 0.66 0.60 1009.4
20260507120417 0 0.0 0.0 0.00 0.66 0.60 1009.3
20260507115915 0 0.0 0.0 0.00 0.66 0.60 1009.6
20260507115419 0 0.0 0.0 0.00 0.66 0.60 1009.6
20260507115415 0 0.0 0.0 0.00 0.66 0.60 1009.6
20260507114409 0 0.0 0.0 0.00 0.66 0.60 1009.7
20260507113813 0 0.0 0.0 0.00 0.66 0.60 1009.9
20260507113310 0 0.0 0.0 0.00 0.66 0.60 1009.9
20260507112816 0 0.0 0.0 0.00 0.66 0.60 1009.8
20260507112809 0 0.0 0.0 0.00 0.66 0.60 1009.8
20260507111807 0 0.0 0.0 0.00 0.66 0.60 1009.7
20260507111309 0 0.0 0.0 0.00 0.66 0.60 1009.9
20260507110715 0 0.0 0.0 0.00 0.66 0.60 1009.8
20260507110213 0 0.0 0.0 0.00 0.66 0.60 1009.9
20260507105715 0 0.0 0.0 0.00 0.66 0.60 1009.8
20260507105215 0 0.0 0.0 0.00 0.66 0.60 1009.7
20260507105117 0 0.0 0.0 0.00 0.66 0.60 1009.5
20260507104725 0 0.0 0.0 0.00 0.66 0.60 1009.5
20260507103613 0 0.0 0.0 0.00 0.66 0.60 1009.6
20260507103111 0 0.0 0.0 0.00 0.66 0.60 1009.6
20260507102611 0 0.0 0.0 0.00 0.66 0.60 1009.6
20260507102518 0 0.0 0.0 0.00 0.66 0.60 1009.4
20260507101516 0 0.0 0.0 0.00 0.66 0.60 1009.4
20260507101013 0 0.0 0.0 0.00 0.66 0.60 1009.7
20260507100513 0 0.0 0.0 0.00 0.66 0.60 1009.7
20260507100012 0 0.0 0.0 0.00 0.66 0.60 1009.6
20260507100008 0 0.0 0.0 0.00 0.66 0.60 1009.5
20260507094917 0 0.0 0.0 0.00 0.66 0.60 1009.5
20260507094913 0 0.0 0.0 0.00 0.66 0.60 1009.3
20260507093916 0 0.0 0.0 0.00 0.66 0.60 1009.4
20260507093910 0 0.0 0.0 0.00 0.66 0.60 1009.6
20260507092814 0 0.0 0.0 0.01 0.66 0.60 1009.5
20260507092313 0 0.0 0.0 0.03 0.66 0.60 1009.4
20260507091815 0 0.0 0.0 0.04 0.66 0.60 1009.3
20260507091304 0 0.0 0.0 0.05 0.66 0.60 1009.6
20260507090716 0 0.0 0.0 0.06 0.66 0.60 1009.6
20260507090712 0 0.0 0.0 0.05 0.66 0.60 1009.5
20260507090118 0 0.0 0.0 0.08 0.66 0.60 1009.6
20260507085727 0 0.0 0.0 0.07 0.66 0.60 1009.6
20260507084613 65 215 0.0 0.0 0.09 0.66 0.60 82 1009.7
20260507084110 65 215 0.0 0.0 0.11 0.66 0.60 82 1009.9
20260507083548 66 259 0.0 0.0 0.11 0.64 0.58 83 1010.1
20260507083543 65 215 0.0 0.0 0.12 0.66 0.60 82 1009.8
20260507083145 65 215 0.0 0.0 0.13 0.66 0.60 82 1009.7
20260507082047 66 142 0.0 0.0 0.09 0.61 0.55 83 1010.1
20260507082041 66 139 0.0 0.0 0.09 0.62 0.56 83 1010.3
20260507081042 66 139 0.0 0.0 0.10 0.61 0.55 83 1010.3
20260507080540 66 222 0.0 0.0 0.11 0.61 0.55 83 1010.0
20260507080041 66 82 0.0 0.0 0.10 0.60 0.54 83 1010.1
20260507075542 66 272 0.0 0.0 0.09 0.59 0.53 83 1009.7
20260507075038 66 134 0.0 0.0 0.08 0.58 0.52 83 1009.7
20260507074539 66 112 0.0 0.0 0.07 0.57 0.51 83 1010.2
20260507074039 66 198 0.0 0.0 0.05 0.55 0.49 83 1010.4
20260507073539 66 198 0.0 0.0 0.04 0.54 0.48 83 1010.3
20260507073039 65 198 0.0 0.0 0.03 0.53 0.47 83 1010.4
20260507072540 65 198 0.0 0.0 0.03 0.53 0.47 83 1010.5
20260507072036 65 207 0.0 0.0 0.03 0.53 0.47 83 1010.3
20260507071537 65 115 0.0 0.0 0.02 0.52 0.47 83 1010.3
20260507071038 65 115 0.0 0.0 0.01 0.51 0.45 84 1010.5
20260507070534 65 115 0.0 0.0 0.00 0.50 0.44 84 1010.7
20260507070036 65 115 0.0 0.0 0.00 0.50 0.44 84 1010.8
20260507065537 65 115 0.0 0.0 0.00 0.50 0.44 84 1010.9
20260507065533 65 115 0.0 0.0 0.00 0.50 0.44 84 1010.9